This is the latest recevied weather packets stored in our database for station/object SV9TNF-57. If no packets are shown the sender has not sent any weather packets the latest 10 day(s).
| Time | Temp. | Humidity | Pressure | Rain* | Wind** | Luminosity | Snow |
|---|---|---|---|---|---|---|---|
| 1788179867 | 31.11° C | 40% | 995 hPa | 0 mm | 3.58 m/s, 311° | - | - |
| 1788179567 | 30.56° C | 41% | 995.1 hPa | 0 mm | 1.79 m/s, 345° | - | - |
| 1788179267 | 30° C | 44% | 995.4 hPa | 0 mm | 8.05 m/s, 293° | - | - |
| 1788178967 | 30.56° C | 41% | 995.2 hPa | 0 mm | 6.26 m/s, 306° | - | - |
| 1788178667 | 31.11° C | 41% | 995.2 hPa | 0 mm | 5.36 m/s, 330° | - | - |
| 1788178367 | 31.11° C | 42% | 995.2 hPa | 0 mm | 4.02 m/s, 264° | - | - |
| 1788178067 | 31.11° C | 41% | 995.3 hPa | 0 mm | 4.02 m/s, 93° | - | - |
| 1788177767 | 31.11° C | 40% | 995.2 hPa | 0 mm | 6.71 m/s, 339° | - | - |
| 1788177466 | 31.11° C | 41% | 995.2 hPa | 0 mm | 6.26 m/s, 3° | - | - |
| 1788177166 | 31.67° C | 41% | 995.4 hPa | 0 mm | 2.24 m/s, 275° | - | - |
| 1788176866 | 31.67° C | 40% | 995.4 hPa | 0 mm | 2.24 m/s, 275° | - | - |
| 1788176566 | 31.11° C | 39% | 995.5 hPa | 0 mm | 2.68 m/s, 18° | - | - |
| 1788176266 | 31.11° C | 39% | 995.4 hPa | 0 mm | 3.58 m/s, 330° | - | - |
| 1788175966 | 31.67° C | 37% | 995.4 hPa | 0 mm | 0.45 m/s, 58° | - | - |
| 1788175666 | 31.11° C | 39% | 995.6 hPa | 0 mm | 5.36 m/s, 355° | - | - |
| 1788175366 | 30.56° C | 39% | 995.4 hPa | 0 mm | 0.45 m/s, 268° | - | - |
| 1788175066 | 31.11° C | 37% | 995.5 hPa | 0 mm | 6.71 m/s, 301° | - | - |
| 1788174766 | 31.11° C | 38% | 995.6 hPa | 0 mm | 6.71 m/s, 22° | - | - |
| 1788174466 | 31.11° C | 37% | 995.7 hPa | 0 mm | 4.92 m/s, 268° | - | - |
| 1788174165 | 31.11° C | 36% | 995.6 hPa | 0 mm | 1.79 m/s, 247° | - | - |
| 1788173865 | 30.56° C | 38% | 995.5 hPa | 0 mm | 4.02 m/s, 280° | - | - |
| 1788173565 | 31.11° C | 37% | 995.6 hPa | 0 mm | 7.15 m/s, 42° | - | - |
| 1788173277 | 30.56° C | 39% | 995.7 hPa | 0 mm | 4.47 m/s, 325° | - | - |
| 1788172965 | 30.56° C | 38% | 995.4 hPa | 0 mm | 4.92 m/s, 9° | - | - |
| 1788172665 | 30.56° C | 39% | 995.9 hPa | 0 mm | 3.58 m/s, 20° | - | - |
* Rain latest hour (hover to see other rain measurements)
** Current wind speed in m/s (hover to see current wind gust speed)